Jackson, MN

7:21 PM CST on February 10, 2016 (GMT -0600)
Jackson Municipal

Weather History for KMJQ - September, 2012

Change the Weather History Date:

Friday, September 28, 2012

  Actual Average Record
Temperature  
Mean Temperature 59 °F -  
Max Temperature 77 °F 64 °F 84 °F (1998)
Min Temperature 41 °F 41 °F 33 °F (2003)
Degree Days  
Heating Degree Days 6    
Growing Degree Days 9 (Base 50)    
Moisture  
Dew Point 32 °F    
Average Humidity 43    
Maximum Humidity 76    
Minimum Humidity 14    
Precipitation  
Precipitation 0.00 in - - ()
Sea Level Pressure  
Sea Level Pressure 30.18 in    
Wind  
Wind Speed 2 mph (SSW)    
Max Wind Speed 8 mph    
Max Gust Speed -    
Visibility 10 miles    
Events      
Averages and records for this station are not official NWS values.
T = Trace of Precipitation, MM = Missing Value Source: NWS Daily Summary

Daily Weather History Graph

Daily Weather History Graph

Search for Another Location

Airport or City:

Trip Planner

Search our weather history database for the weather conditions in past years. The results will help you decide how hot, cold, wet, or windy it might be!

Date:

Astronomy

Sep. 28, 2012 Rise Set
Actual Time 7:14 AM CDT 7:05 PM CDT
Civil Twilight 6:46 AM CDT 7:33 PM CDT
Nautical Twilight 6:12 AM CDT 8:07 PM CDT
Astronomical Twilight 5:38 AM CDT 8:41 PM CDT
Moon 6:08 PM CDT (9/28) 5:44 AM CDT (9/28)
Length of Visible Light 12h 47m
Length of Day
11h 50m
Waxing Gibbous, 98% of the Moon is Illuminated
Sep 28
Waxing Gibbous
Sep 29
Full
Oct 8
Last Quarter
Oct 15
New
Oct 21
First Quarter

Hourly Weather History & Observations

Time (CDT) Temp. Windchill Dew Point Humidity Pressure Visibility Wind Dir Wind Speed Gust Speed Precip Events Conditions
12:13 AM 48.2 °F - 32.0 °F 54% 30.19 in 10.0 mi Calm Calm - N/A   Clear
12:34 AM 48.2 °F - 32.0 °F 54% 30.18 in 10.0 mi Calm Calm - N/A   Clear
12:53 AM 46.4 °F - 32.0 °F 57% 30.18 in 10.0 mi Calm Calm - N/A   Clear
1:13 AM 44.6 °F - 32.0 °F 61% 30.18 in 10.0 mi Calm Calm - N/A   Clear
1:34 AM 44.6 °F - 32.0 °F 61% 30.18 in 10.0 mi Calm Calm - N/A   Clear
1:53 AM 44.6 °F - 32.0 °F 61% 30.19 in 10.0 mi Calm Calm - N/A   Clear
2:13 AM 42.8 °F - 32.0 °F 66% 30.19 in 10.0 mi Calm Calm - N/A   Clear
2:34 AM 44.6 °F - 32.0 °F 61% 30.18 in 10.0 mi Calm Calm - N/A   Clear
2:53 AM 42.8 °F - 32.0 °F 66% 30.18 in 10.0 mi Calm Calm - N/A   Clear
3:14 AM 42.8 °F - 32.0 °F 66% 30.18 in 10.0 mi Calm Calm - N/A   Clear
3:34 AM 42.8 °F - 32.0 °F 66% 30.19 in 10.0 mi Calm Calm - N/A   Clear
3:53 AM 42.8 °F - 33.8 °F 70% 30.19 in 10.0 mi Calm Calm - N/A   Clear
4:14 AM 42.8 °F - 33.8 °F 70% 30.19 in 10.0 mi Calm Calm - N/A   Clear
4:34 AM 42.8 °F 41.1 °F 33.8 °F 70% 30.19 in 10.0 mi SSW 3.5 mph - N/A   Clear
4:53 AM 42.8 °F - 33.8 °F 70% 30.19 in 10.0 mi Calm Calm - N/A   Clear
5:14 AM 42.8 °F - 33.8 °F 70% 30.19 in 10.0 mi Calm Calm - N/A   Clear
5:34 AM 41.0 °F 38.0 °F 33.8 °F 76% 30.19 in 10.0 mi SSW 4.6 mph - N/A   Clear
5:53 AM 42.8 °F 40.1 °F 33.8 °F 70% 30.19 in 10.0 mi South 4.6 mph - N/A   Clear
6:14 AM 42.8 °F 39.3 °F 33.8 °F 70% 30.19 in 10.0 mi South 5.8 mph - N/A   Clear
6:34 AM 44.6 °F 43.1 °F 33.8 °F 66% 30.19 in 10.0 mi South 3.5 mph - N/A   Clear
6:53 AM 41.0 °F - 33.8 °F 76% 30.19 in 10.0 mi Calm Calm - N/A   Clear
7:14 AM 42.8 °F - 33.8 °F 70% 30.19 in 10.0 mi Calm Calm - N/A   Clear
7:34 AM 42.8 °F - 33.8 °F 70% 30.19 in 10.0 mi Calm Calm - N/A   Clear
7:53 AM 42.8 °F - 33.8 °F 70% 30.19 in 10.0 mi Calm Calm - N/A   Clear
8:14 AM 42.8 °F - 33.8 °F 70% 30.20 in 10.0 mi Calm Calm - N/A   Clear
8:34 AM 46.4 °F - 37.4 °F 71% 30.20 in 10.0 mi Calm Calm - N/A   Clear
8:53 AM 51.8 °F - 37.4 °F 58% 30.20 in 10.0 mi Calm Calm - N/A   Clear
9:13 AM 55.4 °F - 37.4 °F 51% 30.21 in 10.0 mi South 4.6 mph - N/A   Clear
9:34 AM 57.2 °F - 35.6 °F 44% 30.22 in 10.0 mi South 6.9 mph - N/A   Clear
9:53 AM 59.0 °F - 35.6 °F 42% 30.23 in 10.0 mi South 8.1 mph - N/A   Clear
10:14 AM 60.8 °F - 37.4 °F 42% 30.23 in 10.0 mi SSW 6.9 mph - N/A   Clear
10:33 AM 62.6 °F - 37.4 °F 39% 30.23 in 10.0 mi SSW 4.6 mph - N/A   Clear
10:53 AM 64.4 °F - 37.4 °F 37% 30.24 in 10.0 mi SSW 6.9 mph - N/A   Clear
11:14 AM 66.2 °F - 35.6 °F 32% 30.25 in 10.0 mi South 5.8 mph - N/A   Clear
11:33 AM 68.0 °F - 35.6 °F 30% 30.24 in 10.0 mi SW 4.6 mph - N/A   Clear
11:53 AM 69.8 °F - 32.0 °F 25% 30.24 in 10.0 mi South 4.6 mph - N/A   Clear
12:09 PM 69.8 °F - 32.0 °F 25% 30.23 in 10.0 mi SSW 4.6 mph - N/A   Clear
12:25 PM 71.6 °F - 33.8 °F 25% 30.22 in 10.0 mi SW 3.5 mph - N/A   Clear
12:45 PM 71.6 °F - 33.8 °F 25% 30.21 in 10.0 mi South 3.5 mph - N/A   Clear
1:05 PM 71.6 °F - 32.0 °F 23% 30.21 in 10.0 mi SSW 3.5 mph - N/A   Clear
1:25 PM 73.4 °F - 32.0 °F 22% 30.20 in 10.0 mi SE 3.5 mph - N/A   Clear
1:45 PM 73.4 °F - 30.2 °F 20% 30.19 in 10.0 mi Calm Calm - N/A   Clear
2:05 PM 75.2 °F - 30.2 °F 19% 30.19 in 10.0 mi Calm Calm - N/A   Clear
2:25 PM 75.2 °F - 28.4 °F 18% 30.18 in 10.0 mi ESE 4.6 mph - N/A   Clear
2:45 PM 75.2 °F - 26.6 °F 17% 30.17 in 10.0 mi South 4.6 mph - N/A   Clear
3:05 PM 77.0 °F - 26.6 °F 16% 30.16 in 10.0 mi SSW 3.5 mph - N/A   Clear
3:25 PM 75.2 °F - 28.4 °F 18% 30.16 in 10.0 mi WSW 3.5 mph - N/A   Clear
3:45 PM 75.2 °F - 28.4 °F 18% 30.15 in 10.0 mi Calm Calm - N/A   Clear
4:05 PM 77.0 °F - 26.6 °F 16% 30.15 in 10.0 mi Calm Calm - N/A   Clear
4:25 PM 77.0 °F - 24.8 °F 14% 30.15 in 10.0 mi Calm Calm - N/A   Clear
4:45 PM 77.0 °F - 24.8 °F 14% 30.14 in 10.0 mi Calm Calm - N/A   Clear
5:03 PM 77.0 °F - 26.6 °F 16% 30.14 in 10.0 mi Calm Calm - N/A   Clear
5:13 PM 77.0 °F - 26.6 °F 16% 30.14 in 10.0 mi Calm Calm - N/A   Clear
5:33 PM 75.2 °F - 26.6 °F 17% 30.14 in 10.0 mi Calm Calm - N/A   Clear
5:54 PM 75.2 °F - 28.4 °F 18% 30.14 in 10.0 mi East 3.5 mph - N/A   Clear
6:13 PM 73.4 °F - 28.4 °F 19% 30.14 in 10.0 mi Calm Calm - N/A   Clear
6:33 PM 71.6 °F - 30.2 °F 22% 30.14 in 10.0 mi Calm Calm - N/A   Clear
6:53 PM 71.6 °F - 30.2 °F 22% 30.14 in 10.0 mi Calm Calm - N/A   Clear
7:13 PM 68.0 °F - 30.2 °F 24% 30.14 in 10.0 mi Calm Calm - N/A   Clear
7:34 PM 64.4 °F - 32.0 °F 30% 30.14 in 10.0 mi Calm Calm - N/A   Clear
7:53 PM 64.4 °F - 32.0 °F 30% 30.15 in 10.0 mi Calm Calm - N/A   Clear
8:13 PM 60.8 °F - 33.8 °F 36% 30.15 in 10.0 mi South 3.5 mph - N/A   Clear
8:34 PM 62.6 °F - 32.0 °F 32% 30.15 in 10.0 mi SSW 3.5 mph - N/A   Clear
8:53 PM 59.0 °F - 33.8 °F 39% 30.15 in 10.0 mi SSW 3.5 mph - N/A   Clear
9:13 PM 59.0 °F - 33.8 °F 39% 30.15 in 10.0 mi SSW 3.5 mph - N/A   Clear
9:34 PM 55.4 °F - 35.6 °F 47% 30.15 in 10.0 mi Calm Calm - N/A   Clear
9:53 PM 60.8 °F - 33.8 °F 36% 30.15 in 10.0 mi SSW 4.6 mph - N/A   Clear
10:14 PM 60.8 °F - 33.8 °F 36% 30.15 in 10.0 mi SSW 4.6 mph - N/A   Clear
10:34 PM 55.4 °F - 35.6 °F 47% 30.16 in 10.0 mi SSW 3.5 mph - N/A   Clear
10:53 PM 59.0 °F - 32.0 °F 36% 30.16 in 10.0 mi SSW 4.6 mph - N/A   Clear
11:14 PM 59.0 °F - 32.0 °F 36% 30.16 in 10.0 mi SSW 4.6 mph - N/A   Clear
11:34 PM 55.4 °F - 33.8 °F 44% 30.16 in 10.0 mi SSW 4.6 mph - N/A   Clear
11:53 PM 53.6 °F - 33.8 °F 47% 30.16 in 10.0 mi SSW 4.6 mph - N/A   Clear